AirNav   TITAN Aviation Fuels
 
 441 users online  

2G6 Mc Laughlin Seaplane Base
Chester, Virginia, USA

GOING TO CHESTER?


FAA INFORMATION EFFECTIVE 19 MAY 2022

Location

FAA Identifier: 2G6
Lat/Long: 37-19-14.0000N 077-20-45.0000W
37-19.233333N 077-20.750000W
37.3205556,-77.3458333
(estimated)
Elevation: 7 ft. / 2 m
Variation: 10W (2000)
From city: 6 miles E of CHESTER, VA
Time zone: UTC -4 (UTC -5 during Standard Time)
Zip code: 23836

Seaplane Base Operations

Seaplane Base use: Open to the public
Activation date: 12/2001
Control tower: no
ARTCC: WASHINGTON CENTER
FSS: LEESBURG FLIGHT SERVICE STATION
NOTAMs facility: DCA (NOTAM-D service available)
Attendance: UNATNDD
Segmented circle: no

Seaplane Base Communications

CTAF: 122.9
WX AWOS-3PT at FCI (10 nm NW): 128.625 (804-271-8426)
WX ASOS at RIC (11 nm N): PHONE 804-236-1091
WX AWOS-3 at PTB (11 nm SW): 133.325 (804-861-5551)
WX AWOS-3 at W96 (15 nm NE): 119.875 (804-932-8863)

Nearby radio navigation aids

VOR radial/distance  VOR name  Freq  Var
RICr195/11.0RICHMOND VORTAC114.1009W
HPWr273/11.0HOPEWELL VORTAC112.0006W
FAKr124/26.2FLAT ROCK VORTAC113.3006W
HCMr263/31.2HARCUM VORTAC108.8007W
FKNr345/39.7FRANKLIN VORTAC110.6009W

 
NDB name  Hdg/Dist  Freq  Var  ID
WAKEFIELD332/26.127411WAKQ .- -.- --.-
BLACKSTONE080/35.332609WBKT -... -.- -

Seaplane Base Services

Runway Information

Runway 5W/23W

Dimensions: 2500 x 150 ft. / 762 x 46 m
Surface: water
RUNWAY 5W  RUNWAY 23W
Traffic pattern: rightleft

Seaplane Base Ownership and Management from official FAA records

Ownership: Privately-owned
Owner: BARNEY MCLAUGHLIN
14856 PERCH POINT RD
CHESTER, VA 23836
Phone 804-641-0423
Manager: BARNEY MCLAUGHLIN
14856 PERCH POINT RD
CHESTER, VA 23836
Phone 804-641-0423

Additional Remarks

FOR CD CTC POTOMAC APCH AT 866-640-4124.

Instrument Procedures

There are no published instrument procedures at 2G6.

Some nearby airports with instrument procedures:

KFCI - Richmond Executive-Chesterfield County Airport (10 nm NW)
KRIC - Richmond International Airport (11 nm N)
KPTB - Dinwiddie County Airport (11 nm SW)
W96 - New Kent County Airport (15 nm NE)
KOFP - Hanover County Municipal Airport (24 nm N)
 
Loc | Ops | Rwys | IFR | FBO | Links
Com | Nav | Svcs | Stats | Notes
Area around 2G6 (Mc Laughlin Seaplane Base)
 
Road maps at: MapQuest Bing Google
 
Aerial photo
No photo
 
Sectional chart

 
Airport distance calculator
Flying to Mc Laughlin Seaplane Base? Find the distance to fly.

From to 2G6

Sunrise and sunset
Times for 28-May-2022
 Local
(UTC-4)
 Zulu
(UTC)
Morning civil twilight05:2309:23
Sunrise05:5309:53
Sunset20:2000:20
Evening civil twilight20:5000:50

Current date and time
Zulu (UTC)  28-May-2022 09:48:57
Local (UTC-4)  28-May-2022 05:48:57
 
METAR
KFCI 
10nm NW 
280756Z AUTO 19005KT 10SM BKN100 17/17 A2980 RMK AO2 RAE50 SLP098 T01670167 PNO $
KRIC 
12nm N 
280854Z 23006KT 10SM SCT090 BKN180 18/17 A2979 RMK AO2 RAE02 SLP091 P0000 60003 T01780167 55012
KPTB 
12nm SW 
280935Z AUTO 26003KT 10SM -RA SCT110 17/16 A2981 RMK AO2 T01700163
KW96 
15nm NE 
280935Z AUTO 00000KT 10SM SCT080 SCT095 BKN120 17/17 A2979 RMK AO1 P0001 T01700170
TAF
KRIC 
12nm N 
280522Z 2806/2906 22005KT P6SM -SHRA BKN050 FM281000 24004KT P6SM SCT150 FM281700 28006KT P6SM SCT050 FM282300 VRB02KT P6SM SKC
NOTAMs
Click for the latest NOTAMs
NOTAMs are issued by the DoD/FAA and will open in a separate window not controlled by AirNav.

 

 
 

Would you like to see your business listed on this page?

 If your business provides an interesting product or service to pilots, flight crews, aircraft, or users of the Mc Laughlin Seaplane Base, you should consider listing it here.  To start the listing process, click on the button below
 
Add a business
 

Other Pages about Mc Laughlin Seaplane Base

Update a link
 
Copyright © AirNav, LLC. All rights reserved. Privacy Policy  Contact